Location: Klickitat County Star Party
(45.8642°N, 120.6771°W)
Time: 23:12:00
(UTC-08:00)

PCSat - Visible Passes

Search period start: 18 November 2019 00:00
Search period end: 28 November 2019 00:00
Orbit: 784 x 795 km, 67.1° (Epoch: 17 November)

Date Brightness Start Highest point End Pass type
(mag) Time Alt. Az. Time Alt. Az. Time Alt. Az.
18 Nov 10.4 03:56:28 46° E 03:56:28 46° E 04:00:44 10° SE visible
18 Nov 10.6 05:37:15 24° W 05:38:30 26° WSW 05:42:54 10° SSW visible
18 Nov 11.1 18:34:41 10° SSE 18:36:50 20° SSE 18:36:50 20° SSE visible
18 Nov 12.2 20:17:08 10° SW 20:17:37 13° SW 20:17:37 13° SW visible
19 Nov 11.6 03:27:17 23° ESE 03:27:17 23° ESE 03:29:28 10° ESE visible
19 Nov 10.2 05:08:04 35° WSW 05:08:04 35° WSW 05:12:32 10° S visible
19 Nov 10.9 18:04:29 10° SSE 18:07:40 20° ESE 18:07:40 20° ESE visible
19 Nov 11.2 19:45:57 10° SW 19:48:25 27° SW 19:48:25 27° SW visible
20 Nov 10.6 04:38:58 31° SSW 04:38:58 31° SSW 04:41:58 10° S visible
20 Nov 11.1 17:34:38 10° SE 17:37:41 15° ESE 17:38:24 15° E visible
20 Nov 10.0 19:14:54 10° SSW 19:19:09 57° SW 19:19:09 57° SW visible
21 Nov 11.6 04:09:54 18° SSE 04:09:54 18° SSE 04:11:14 10° SSE visible
21 Nov 11.4 17:05:48 10° ESE 17:06:57 11° E 17:08:06 10° E visible
21 Nov 9.4 18:43:58 10° SSW 18:49:21 73° ESE 18:49:47 69° E visible
21 Nov 12.1 20:28:56 10° W 20:30:32 17° W 20:30:32 17° W visible
22 Nov 9.7 18:13:10 10° SSW 18:18:26 54° ESE 18:20:19 36° ENE visible
22 Nov 11.4 19:57:23 10° WSW 20:01:03 28° WNW 20:01:03 28° WNW visible
23 Nov 10.1 17:42:32 10° S 17:47:32 40° ESE 17:50:44 20° NE visible
23 Nov 10.7 19:25:57 10° WSW 19:30:58 37° NW 19:31:29 36° NW visible
24 Nov 10.5 17:12:04 10° S 17:16:42 30° ESE 17:21:05 11° NE visible
24 Nov 10.4 18:54:38 10° SW 18:59:52 48° NW 19:01:49 33° N visible
24 Nov 12.5 20:42:02 10° WNW 20:42:33 11° NW 20:42:33 11° NW visible
25 Nov 9.9 18:23:27 10° SW 18:28:49 63° NW 18:32:04 24° NNE visible
25 Nov 12.0 20:10:02 10° WNW 20:12:48 16° NW 20:12:48 16° NW visible
26 Nov 9.6 17:52:23 10° SW 17:57:48 82° NW 18:02:15 16° NNE visible
26 Nov 11.7 19:38:12 10° W 19:42:03 19° NW 19:42:58 19° NNW visible
27 Nov 9.6 17:21:26 10° SSW 17:26:50 76° ESE 17:32:16 10° NE visible
27 Nov 11.5 19:06:30 10° W 19:10:49 23° NW 19:13:05 18° N visible
